Regional Weather Roundup
Issued by NWS New Orleans/Baton Rouge, LA

Home | Current Version | Previous Version | Text Only | Print | Product List | Glossary On
Versions: 1 2 3 4 5 6 7 8 9 10 11 12 13 14 15 16 17 18 19 20 21 22 23 24 25 26 27 28 29 30 31 32 33 34 35 36 37 38 39 40 41 42 43 44 45 46 47 48 49 50
000
ASUS44 KLIX 072110
RWRLIX
NEW ORLEANS REGIONAL WEATHER ROUNDUP
NATIONAL WEATHER SERVICE NEW ORLEANS LA
300 PM CST SUN FEB 07 2016

NOTE: "FAIR" INDICATES FEW OR NO CLOUDS BELOW 12,000 FEET WITH NO
      SIGNIFICANT WEATHER AND/OR OBSTRUCTIONS TO VISIBILITY.
      SKY/WX - SKY CONDITION AND SIGNIFICANT WEATHER.
      TMP - AIR TEMPERATURE.     DP    - DEWPOINT TEMPERATURE.
      RH  - RELATIVE HUMIDITY.   PRES  - PRESSURE.
      HI  - HEAT INDEX.          WCI   - WIND CHILL INDEX.

*  THESE STATIONS ARE NOT NWS OR FAA STATIONS AND ARE NOT UNDER
   NWS QUALITY CONTROL.

LAZ038-040-048-061>063-065>067-069-072200-
SOUTHEAST LOUISIANA

CITY           SKY/WX    TMP DP  RH WIND       PRES   REMARKS
N.O. AUDUBON   NOT AVBL
N.O. INTL ARPT MOSUNNY   58  18  21 NW3       30.16F
N.O. LAKEFRONT SUNNY     55  28  35 W8        30.17F
N.O. DOWNTOWN*   N/A     61  19  20 MISG      30.17F
RESERVE*         N/A     62  22  21 SW6       30.16F
SLIDELL        SUNNY     58  29  33 SW8       30.14F
BATON ROUGE    SUNNY     61  26  26 SW7       30.14F
BOOTHVILLE     SUNNY     55  27  34 E3        30.18F
BELLE CHASSE   MOSUNNY   60  20  21 SW6       30.16F
BOGALUSA*        N/A     62  22  21 S7        30.14F
GALLIANO*      CLEAR     61  27  27 S3        30.18F
NEW ROADS*       N/A     60  28  30 S8        30.15F
GONZALES*        N/A     60  25  26 S5        30.15F
HAMMOND*       SUNNY     63  18  17 CALM      30.14F
HOUMA*         NOT AVBL
PORT FOURCHON* CLEAR     55  27  33 CALM      30.20F

$$

MSZ070-080>082-072200-
SOUTHERN MISSISSIPPI

CITY           SKY/WX    TMP DP  RH WIND       PRES   REMARKS
MCCOMB         SUNNY     61  27  27 SW9       30.12F
GULFPORT       SUNNY     57  28  33 SW8       30.13F
BILOXI         SUNNY     57  32  38 SW13      30.12F
PASCAGOULA     SUNNY     60  15  17 CALM      30.12F
STENNIS ARPT*  SUNNY     61   9  12 W5        30.14F

$$

COASTAL OBSERVATIONS
LAKE AND NEARSHORE STATIONS

STATION/POSITION TIME  TEMP    WIND        PRES    WAVE
                       AIR SEA DIR/SP/G            HT/PER
                 (UTC) (F)     (DEG/KT/KT) (MB)    (FT/S)
PASCAGOULA       2000   59      20/  4/  7 1020.2
WAVELAND YACHT   2000   55 54  190/  7/ 11 1020.9
GRAND ISLE       2000   55 53   60/  3/  5 1022.7
NEW CANAL        2000   55 53  270/  3/  4 1021.3
SHELL BEACH      2000   54 54   CALM  /  2 1021.4

OFFSHORE STATIONS

STATION/POSITION TIME  TEMP    WIND        PRES    WAVE
                       AIR SEA DIR/SP/G            HT/PER
                 (UTC) (F)     (DEG/KT/KT) (MB)    (FT/S)

$$




USA.gov is the U.S. government's official web portal to all federal, state and local government web resources and services.